Wahoo, NE

11:51 AM CDT on August 20, 2017 (GMT -0500)
Wahoo Municipal

Weather History for KAHQ - September, 2013

Change the Weather History Date:

Thursday, September 19, 2013

  Actual Average Record
Temperature  
Mean Temperature 68 °F -  
Max Temperature 80 °F 78 °F 94 °F (1972)
Min Temperature 58 °F 54 °F 27 °F (1991)
Cooling Degree Days 4    
Growing Degree Days 18 (Base 50)    
Moisture  
Dew Point 60 °F    
Average Humidity 70    
Maximum Humidity 89    
Minimum Humidity 49    
Precipitation  
Precipitation 0.32 in - - ()
Sea Level Pressure  
Sea Level Pressure 29.83 in    
Wind  
Wind Speed 11 mph (WNW)    
Max Wind Speed 21 mph    
Max Gust Speed 37 mph    
Visibility 10 miles    
Events Rain    
Averages and records for this station are not official NWS values.
T = Trace of Precipitation, MM = Missing Value Source: NWS Daily Summary

Daily Weather History Graph

Daily Weather History Graph

Search for Another Location

Airport or City:

Trip Planner

Search our weather history database for the weather conditions in past years. The results will help you decide how hot, cold, wet, or windy it might be!

Date:

Astronomy

Sep. 19, 2013 Rise Set
Actual Time 7:11 AM CDT 7:28 PM CDT
Civil Twilight 6:43 AM CDT 7:55 PM CDT
Nautical Twilight 6:11 AM CDT 8:28 PM CDT
Astronomical Twilight 5:37 AM CDT 9:01 PM CDT
Moon 7:26 PM CDT (9/19) 7:22 AM CDT (9/19)
Length of Visible Light 13h 12m
Length of Day
12h 17m
Full, 100% of the Moon is Illuminated
Sep 19
Full
Sep 26
Last Quarter
Oct 4
New
Oct 11
First Quarter
Oct 18
Full

Hourly Weather History & Observations

Time (CDT) Temp. Dew Point Humidity Pressure Visibility Wind Dir Wind Speed Gust Speed Precip Events Conditions
12:15 AM 79.2 °F 63.1 °F 58% 29.72 in 10.0 mi South 13.8 mph 19.6 mph N/A   Clear
12:35 AM 79.2 °F 63.0 °F 57% 29.72 in 10.0 mi South 13.8 mph 18.4 mph N/A   Clear
12:55 AM 79.0 °F 63.1 °F 58% 29.72 in 10.0 mi South 12.7 mph - N/A   Clear
1:15 AM 78.8 °F 62.8 °F 58% 29.72 in 10.0 mi South 16.1 mph - N/A   Clear
1:35 AM 78.8 °F 62.6 °F 57% 29.72 in 10.0 mi South 13.8 mph 18.4 mph N/A   Clear
1:55 AM 78.8 °F 62.2 °F 57% 29.73 in 10.0 mi South 12.7 mph - N/A   Clear
2:15 AM 78.3 °F 62.1 °F 57% 29.73 in 10.0 mi South 11.5 mph - N/A   Clear
2:35 AM 77.9 °F 62.1 °F 58% 29.73 in 10.0 mi South 12.7 mph 19.6 mph N/A   Clear
2:55 AM 77.9 °F 61.9 °F 58% 29.73 in 10.0 mi South 13.8 mph - N/A   Clear
3:15 AM 77.9 °F 61.9 °F 58% 29.73 in 10.0 mi South 12.7 mph 19.6 mph N/A   Scattered Clouds
3:35 AM 77.7 °F 61.7 °F 58% 29.73 in 10.0 mi South 12.7 mph 24.2 mph N/A   Scattered Clouds
3:55 AM 77.0 °F 61.7 °F 59% 29.73 in 10.0 mi SSW 13.8 mph 19.6 mph N/A   Clear
4:15 AM 76.8 °F 61.7 °F 59% 29.73 in 10.0 mi SSW 11.5 mph - N/A   Clear
4:35 AM 76.5 °F 61.3 °F 59% 29.73 in 10.0 mi SSW 13.8 mph 19.6 mph N/A   Clear
4:55 AM 75.7 °F 61.7 °F 62% 29.74 in 10.0 mi SW 11.5 mph 17.3 mph N/A   Clear
5:15 AM 74.1 °F 61.9 °F 65% 29.74 in 10.0 mi SW 8.1 mph - N/A   Clear
5:35 AM 72.9 °F 62.1 °F 69% 29.74 in 10.0 mi SW 6.9 mph - N/A   Clear
5:55 AM 72.5 °F 61.9 °F 69% 29.74 in 10.0 mi SSW 8.1 mph - N/A   Clear
6:15 AM 71.6 °F 62.2 °F 72% 29.74 in 10.0 mi WSW 4.6 mph - N/A   Clear
6:35 AM 69.8 °F 62.1 °F 76% 29.75 in 10.0 mi SSW 4.6 mph - N/A   Clear
6:55 AM 68.5 °F 62.1 °F 80% 29.77 in 10.0 mi SSW 3.5 mph - N/A   Clear
7:15 AM 68.0 °F 62.2 °F 82% 29.77 in 10.0 mi Calm Calm - N/A   Clear
7:35 AM 70.0 °F 62.6 °F 77% 29.79 in 10.0 mi Calm Calm - N/A   Mostly Cloudy
7:55 AM 70.2 °F 63.7 °F 80% 29.80 in 10.0 mi West 6.9 mph - N/A   Overcast
8:15 AM 71.6 °F 63.7 °F 76% 29.80 in 10.0 mi Calm Calm - N/A   Overcast
8:35 AM 72.9 °F 63.7 °F 73% 29.79 in 10.0 mi Calm Calm - N/A   Overcast
8:55 AM 73.2 °F 64.4 °F 74% 29.78 in 10.0 mi SE 4.6 mph - N/A   Mostly Cloudy
9:15 AM 74.5 °F 64.4 °F 71% 29.78 in 10.0 mi SSE 5.8 mph - N/A   Clear
9:35 AM 76.5 °F 63.3 °F 64% 29.77 in 10.0 mi SSE 6.9 mph - N/A   Clear
9:55 AM 78.1 °F 62.1 °F 58% 29.77 in 10.0 mi SSE 9.2 mph - N/A   Clear
10:15 AM 78.3 °F 61.0 °F 55% 29.86 in 10.0 mi West 17.3 mph 21.9 mph N/A   Mostly Cloudy
10:35 AM 70.3 °F 63.9 °F 80% 29.85 in 1.2 mi East 8.1 mph - 0.22 in Rain Rain
10:55 AM 68.4 °F 65.1 °F 89% 29.81 in 10.0 mi East 5.8 mph - 0.24 in Rain Light Rain
11:15 AM 69.8 °F 66.2 °F 88% 29.79 in 10.0 mi ESE 5.8 mph - N/A   Mostly Cloudy
11:35 AM 70.7 °F 66.4 °F 86% 29.80 in 10.0 mi North 4.6 mph - N/A Rain Light Rain
11:55 AM 70.7 °F 66.6 °F 87% 29.83 in 10.0 mi NW 12.7 mph - N/A   Scattered Clouds
12:15 PM 70.5 °F 64.8 °F 82% 29.85 in 10.0 mi NW 12.7 mph 19.6 mph N/A   Scattered Clouds
12:35 PM 69.8 °F 64.2 °F 82% 29.85 in 10.0 mi NNW 8.1 mph 16.1 mph N/A   Scattered Clouds
12:55 PM 69.3 °F 64.6 °F 85% 29.88 in 10.0 mi NW 5.8 mph - N/A   Clear
1:15 PM 68.9 °F 63.9 °F 84% 29.85 in 10.0 mi NNW 15.0 mph - N/A   Scattered Clouds
1:35 PM 69.1 °F 64.4 °F 85% 29.86 in 10.0 mi NW 10.4 mph 17.3 mph 0.01 in Rain Light Rain
1:55 PM 68.9 °F 63.5 °F 83% 29.85 in 10.0 mi NW 15.0 mph - 0.01 in   Scattered Clouds
2:15 PM 69.3 °F 63.3 °F 81% 29.84 in 10.0 mi NW 15.0 mph 20.7 mph N/A   Clear
2:35 PM 68.9 °F 62.8 °F 81% 29.88 in 10.0 mi NW 9.2 mph 19.6 mph N/A   Scattered Clouds
2:55 PM 67.8 °F 62.8 °F 84% 29.88 in 10.0 mi NW 8.1 mph - 0.01 in Rain Light Rain
3:15 PM 66.9 °F 62.6 °F 86% 29.83 in 10.0 mi North 10.4 mph - 0.04 in Rain Rain
3:35 PM 66.6 °F 62.6 °F 87% 29.84 in 10.0 mi NNW 12.7 mph 16.1 mph 0.05 in Rain Light Rain
3:55 PM 66.4 °F 62.2 °F 86% 29.82 in 10.0 mi NNW 12.7 mph - 0.06 in Rain Light Rain
4:15 PM 67.3 °F 62.2 °F 84% 29.83 in 10.0 mi NW 10.4 mph - N/A   Scattered Clouds
4:35 PM 68.4 °F 61.3 °F 78% 29.83 in 10.0 mi NW 9.2 mph - N/A   Clear
4:55 PM 69.8 °F 59.9 °F 71% 29.84 in 10.0 mi NW 12.7 mph 18.4 mph N/A   Clear
5:15 PM 70.7 °F 55.4 °F 58% 29.84 in 10.0 mi NNW 20.7 mph 27.6 mph N/A   Clear
5:35 PM 71.1 °F 52.7 °F 52% 29.85 in 10.0 mi NNW 18.4 mph 23.0 mph N/A   Clear
5:55 PM 71.1 °F 50.7 °F 49% 29.86 in 10.0 mi NNW 20.7 mph 36.8 mph N/A   Scattered Clouds
6:15 PM 68.0 °F 50.0 °F 52% 29.88 in 10.0 mi NNW 20.7 mph 32.2 mph N/A   Clear
6:35 PM 67.5 °F 49.5 °F 52% 29.89 in 10.0 mi NNW 13.8 mph 24.2 mph N/A   Clear
6:55 PM 67.1 °F 49.1 °F 52% 29.89 in 10.0 mi North 8.1 mph 18.4 mph N/A   Mostly Cloudy
7:15 PM 67.1 °F 48.9 °F 52% 29.90 in 10.0 mi North 9.2 mph - N/A   Overcast
7:35 PM 65.5 °F 50.2 °F 58% 29.92 in 10.0 mi NNW 6.9 mph - N/A   Overcast
7:55 PM 63.5 °F 50.2 °F 62% 29.92 in 10.0 mi NW 9.2 mph - N/A   Mostly Cloudy
8:15 PM 63.3 °F 49.3 °F 60% 29.93 in 10.0 mi NNW 10.4 mph 17.3 mph N/A   Scattered Clouds
8:35 PM 62.6 °F 50.0 °F 63% 29.94 in 10.0 mi NNW 12.7 mph 16.1 mph N/A   Clear
8:55 PM 62.1 °F 51.1 °F 67% 29.97 in 10.0 mi NNW 9.2 mph 19.6 mph N/A   Clear
9:15 PM 61.0 °F 51.8 °F 72% 29.98 in 10.0 mi NW 6.9 mph - N/A   Clear
9:35 PM 59.7 °F 52.3 °F 77% 29.99 in 10.0 mi NW 6.9 mph - N/A   Scattered Clouds
9:55 PM 59.9 °F 52.9 °F 78% 30.00 in 10.0 mi NW 10.4 mph - N/A   Scattered Clouds
10:15 PM 59.9 °F 52.3 °F 76% 30.00 in 10.0 mi NW 6.9 mph - N/A   Scattered Clouds
10:35 PM 59.4 °F 52.0 °F 77% 30.01 in 10.0 mi NW 6.9 mph - N/A   Clear
10:55 PM 58.5 °F 52.2 °F 80% 30.02 in 10.0 mi NW 6.9 mph - N/A   Clear
11:15 PM 58.3 °F 52.2 °F 80% 30.03 in 10.0 mi NW 5.8 mph - N/A   Mostly Cloudy
11:35 PM 59.0 °F 52.3 °F 79% 30.02 in 10.0 mi NW 6.9 mph - N/A   Overcast
11:55 PM 58.8 °F 52.7 °F 80% 30.04 in 10.0 mi WNW 5.8 mph - N/A   Overcast